Location: Huntsville
(41.2590°N, 111.7678°W)
Time: 06:26:06
(UTC+00:00)

SR - Pass Details

Date: 17 June 2021
Orbit: 577 x 878 km, 66.7° (Epoch: 26 July)

Event Time Altitude Azimuth Distance (km) Brightness Sun altitude
Rises 07:40:44 0° 341° (NNW) 3,339 ? -25.3°
Reaches altitude 10° 07:44:24 10° 4° (N) 2,340 ? -25.2°
Maximum altitude 07:47:21 15° 38° (NE) 1,969 ? -25.2°
Drops below altitude 10° 07:50:12 10° 72° (ENE) 2,221 ? -25.1°
Sets 07:53:31 0° 96° (E) 3,067 ? -25.1°
